Volver al catálogo

SICRAL 1B

ActivoMilitarGEO
NORAD 34810·PAYLOAD·🇮🇹 Italy

Lanzado Apr 20, 2009 desde Sea Launch Platform

Loading…

TLE

ActualizadoSource: Mike McCants

Época: Sep 15, 2026, 04:50 UTC

1 34810U 09020A   26258.20159602  .00000000  00000-0  00000-0 0    08
2 34810   3.0809  78.5037 0003919 254.7247 105.2397  1.00270000  1403

Sigue SICRAL 1B en tiempo real con AllMySat

Download on the App Store